GFSFLT1_sfc_wetblb_105.txt.gz
Wetbulb
71.13 71.32 72.73 72.63 72.30 71.92 71.14 70.82 71.99 70.65 69.71 68.91 68.58 67.92 67.07 64.29 60.25 61.68 65.13 68.06 71.49 72.13 72.61 73.00 73.15 73.15 73.27 73.46 73.56 73.50 73.36 73.06 72.92
72.11 71.96 70.87 71.86 71.69 71.13 70.45 69.42 70.76 69.80 68.72 67.95 67.34 66.89 65.83 58.57 58.84 60.44 62.60 68.45 72.43 71.38 71.84 71.81 72.86 72.74 72.82 72.79 72.95 73.13 73.07 72.97 72.91
70.85 70.57 70.65 70.43 70.12 69.87 69.04 67.84 69.15 68.71 66.86 65.32 65.08 65.16 63.31 58.22 57.54 60.02 62.05 69.46 71.14 72.33 71.67 71.65 71.33 71.94 72.53 72.32 72.23 72.45 72.40 72.37 72.45
69.76 69.63 69.52 69.14 68.56 68.13 66.96 66.16 67.87 66.97 65.15 63.94 63.30 63.74 62.94 54.67 56.58 60.81 61.03 68.50 68.88 70.27 70.38 70.55 71.19 71.08 71.07 72.07 72.20 72.32 72.08 72.18 71.75
68.81 68.09 67.07 65.74 64.36 64.56 64.22 65.49 65.94 64.93 63.44 63.27 63.61 63.54 62.44 56.52 57.02 58.74 63.25 67.12 67.52 67.71 68.16 69.03 69.40 70.65 71.41 71.28 71.32 71.80 71.78 71.41 71.45
61.42 65.55 65.54 64.79 63.53 63.13 63.28 64.20 64.44 63.34 62.80 63.90 63.83 60.83 55.42 56.51 58.53 59.49 66.90 66.27 67.07 67.10 67.03 66.99 67.77 68.57 69.08 70.17 70.66 71.01 71.12 71.03 71.00
59.87 63.04 65.37 63.01 62.64 62.83 62.56 62.17 62.11 55.41 49.73 53.34 56.41 52.84 53.75 55.24 57.20 62.01 66.61 66.29 66.95 66.97 66.52 66.59 66.89 67.33 67.71 68.02 68.08 68.83 70.10 70.50 70.68
52.95 51.44 50.25 49.34 54.14 47.50 49.64 47.21 46.24 46.36 47.55 47.55 48.55 50.45 51.48 53.18 56.30 64.06 67.48 67.08 66.47 65.41 65.00 65.22 65.55 65.02 65.42 65.83 66.73 67.40 68.42 68.38 69.15
49.90 49.03 47.70 47.04 45.41 44.53 44.19 43.84 43.95 44.73 45.86 45.77 46.11 47.24 49.17 51.01 53.19 60.51 65.09 64.60 64.55 64.70 65.07 64.71 64.15 63.88 63.70 63.92 64.33 64.93 66.00 66.32 66.64
47.84 46.75 46.48 45.22 45.17 44.63 43.95 43.70 43.72 43.22 43.69 44.81 45.91 45.71 47.06 48.82 50.59 53.02 63.00 62.46 62.62 62.77 62.99 62.52 62.32 62.12 62.22 62.25 62.51 62.77 63.14 63.89 65.01
47.43 45.93 45.55 45.00 45.16 44.47 44.68 44.48 43.97 43.19 43.12 43.62 44.24 45.06 45.69 47.05 48.98 50.26 53.16 59.26 59.40 59.75 60.01 60.22 60.42 60.68 60.52 60.36 60.51 60.96 61.11 61.49 61.97
46.25 45.65 45.19 44.88 44.78 45.30 45.42 45.08 44.64 44.46 44.81 42.26 42.87 44.06 44.64 45.93 46.76 48.07 49.20 50.74 57.92 57.97 58.30 58.54 58.98 59.41 59.98 59.87 59.65 59.70 59.54 59.71 60.16
46.32 46.08 45.24 44.87 45.42 46.20 46.17 45.88 45.37 44.27 44.00 42.58 43.05 42.61 43.47 44.26 45.21 46.59 46.53 46.91 47.77 52.69 56.74 56.69 57.18 57.71 58.14 58.08 57.73 57.99 58.06 58.33 58.88
47.07 46.27 45.80 46.35 46.19 45.51 46.53 44.70 45.31 43.95 44.58 45.00 44.54 44.04 43.09 42.78 46.29 44.17 44.79 45.35 45.53 45.42 52.98 55.67 55.29 55.22 55.81 56.62 56.71 56.50 56.42 56.73 57.38
47.00 46.19 46.21 46.37 45.52 44.99 45.13 44.48 44.44 44.20 44.26 47.49 45.62 43.51 43.24 43.43 42.56 42.71 44.78 43.76 44.71 44.08 44.58 43.61 44.89 55.12 54.90 54.66 55.18 55.36 54.96 55.33 55.47
47.46 46.13 46.19 46.39 45.97 44.55 44.86 44.25 44.10 43.77 43.06 43.77 43.58 42.97 42.19 40.95 41.61 40.93 41.39 43.21 43.62 43.48 43.71 42.89 42.81 43.35 51.62 53.37 55.35 53.46 53.35 53.87 54.14
47.83 47.22 46.18 45.80 45.68 45.13 45.40 45.38 44.36 44.22 43.26 41.79 39.93 39.05 41.80 41.98 41.27 40.09 41.53 39.85 41.27 41.55 41.82 40.36 40.25 39.92 40.20 45.27 53.08 53.30 53.03 52.57 53.69
49.57 48.18 47.59 47.01 47.27 46.00 45.17 44.97 44.91 43.62 43.87 42.74 42.03 38.08 37.51 37.53 40.69 39.93 40.18 39.91 39.70 38.89 39.32 39.06 39.21 38.70 38.92 42.47 44.98 51.58 53.35 53.82 53.87
49.26 48.23 47.33 46.69 46.14 45.81 45.33 46.37 44.64 44.45 43.29 43.14 44.82 41.31 40.37 38.62 38.05 39.89 39.22 39.10 39.77 37.64 38.35 37.91 38.46 38.24 38.76 43.92 47.84 51.14 52.14 53.15 53.97
48.43 47.71 47.10 45.64 45.93 44.80 45.66 45.11 44.88 44.05 43.19 42.14 41.24 39.95 38.75 37.39 37.40 36.54 38.20 38.29 37.91 37.98 37.50 36.77 36.76 37.31 37.49 38.06 43.69 50.28 50.78 51.47 52.58

GFSFLT1_sfc_wetblb_108.txt.gz
Wetbulb
71.39 72.81 72.54 72.24 71.46 70.98 72.12 71.35 70.48 69.52 68.91 68.52 68.26 67.98 67.54 64.86 61.76 63.54 68.19 67.27 72.07 72.76 73.13 73.03 73.11 73.23 73.28 73.33 73.44 73.55 73.53 73.39 72.68
71.38 72.20 72.15 71.93 71.19 70.46 71.63 70.94 69.83 68.81 67.91 67.60 67.37 67.05 66.40 59.69 60.56 62.06 66.16 70.53 71.81 71.32 72.01 72.15 72.65 72.65 72.77 72.79 72.90 72.93 72.78 72.49 72.61
71.61 71.40 70.85 70.66 70.22 69.27 69.81 70.27 68.33 66.65 65.84 66.04 66.51 66.06 64.24 59.36 59.46 60.88 64.25 70.99 71.36 71.42 70.95 71.35 71.88 72.31 72.41 72.25 72.22 72.33 72.03 71.63 72.16
70.55 70.22 70.12 69.80 69.07 67.95 68.99 69.10 66.69 65.25 64.39 64.47 65.38 65.28 64.22 56.56 58.77 61.99 62.74 69.29 69.27 69.75 70.28 70.95 71.49 71.52 72.00 72.16 71.98 72.00 72.10 71.13 71.05
69.48 68.89 67.91 67.43 66.77 66.04 67.52 66.69 64.77 64.27 64.05 64.49 65.29 64.81 63.42 58.21 58.83 60.50 64.89 67.81 68.17 68.52 68.66 69.23 69.81 70.64 71.04 71.65 71.70 71.49 71.60 71.66 70.66
62.52 66.38 66.53 65.10 65.07 65.49 66.18 64.86 63.94 64.30 64.84 65.22 64.17 61.18 56.10 57.96 59.20 60.45 67.64 67.22 67.61 67.71 67.81 67.98 68.46 68.99 69.35 69.57 70.56 70.72 70.69 70.81 70.79
60.77 64.50 66.43 64.22 63.89 64.19 64.99 63.53 61.96 55.82 50.55 54.52 57.88 54.39 55.75 57.65 59.70 62.67 67.88 66.34 66.52 66.80 66.59 66.04 66.22 66.74 67.23 68.18 68.65 69.10 68.98 69.50 70.22
52.73 50.61 50.32 50.32 58.06 50.14 50.46 47.60 46.51 46.63 48.34 49.03 50.56 52.67 53.59 54.97 58.20 65.31 66.31 65.62 66.36 66.16 65.21 64.78 64.69 64.96 65.27 65.71 66.47 67.16 67.82 67.81 68.05
48.77 47.18 45.43 44.76 44.05 43.35 43.49 43.67 44.58 45.62 45.95 45.96 47.53 49.24 50.89 52.44 54.80 61.82 65.50 64.57 65.00 64.52 64.09 63.46 63.29 63.23 63.41 63.60 64.01 64.28 64.80 65.92 66.69
47.19 45.76 44.93 43.82 43.51 43.31 42.50 42.60 43.11 43.42 44.46 45.20 46.07 46.77 48.30 49.64 51.36 54.25 63.46 61.94 61.97 62.22 62.25 62.43 62.41 62.18 62.11 62.29 62.32 62.20 62.42 62.86 63.45
46.22 45.24 44.29 43.94 43.61 43.27 43.03 42.64 42.49 42.18 42.65 43.74 45.02 44.83 45.85 47.73 49.17 50.31 53.91 60.40 60.26 60.79 61.13 61.18 61.57 61.91 61.55 61.26 60.86 60.73 60.90 61.18 61.49
46.08 45.14 44.38 43.75 43.55 44.21 43.97 43.05 42.54 42.59 43.21 41.25 42.77 44.93 44.64 45.91 46.55 47.92 48.65 50.72 59.14 59.12 59.18 59.55 59.95 60.19 59.98 59.67 59.52 59.41 59.59 60.06 60.58
45.70 45.35 44.64 43.92 44.38 45.27 44.99 44.47 43.69 43.13 42.64 41.44 41.89 42.03 43.81 44.37 45.23 46.18 46.24 46.16 46.73 51.92 57.44 57.48 57.82 58.10 58.40 58.50 58.21 58.08 58.02 58.23 58.76
46.19 45.40 44.63 44.76 45.06 45.10 45.99 44.27 44.33 43.29 42.70 43.87 42.77 42.50 42.02 42.56 46.39 44.19 44.78 46.66 45.50 45.36 52.83 55.06 56.23 57.05 57.04 57.03 57.16 56.64 56.68 56.65 56.73
46.94 45.76 45.03 45.17 44.56 44.15 44.33 43.69 43.35 43.24 43.58 46.46 43.94 41.99 42.03 42.68 42.01 42.56 44.40 44.27 44.89 44.46 44.50 43.90 45.41 54.46 57.26 56.92 56.88 56.22 55.59 55.72 55.60
46.72 46.40 46.16 45.57 44.89 44.25 44.15 43.39 43.58 43.18 42.41 42.94 42.19 41.66 41.07 40.82 41.32 40.78 41.50 42.85 42.85 43.00 42.62 42.25 41.55 42.79 50.98 52.76 55.33 55.62 54.89 54.63 54.79
47.70 47.48 46.76 47.28 45.55 44.07 43.83 44.22 43.05 43.42 42.26 41.86 40.34 39.46 41.48 41.39 40.91 40.17 41.02 40.00 41.15 41.01 40.13 39.46 39.51 39.77 40.84 48.16 51.97 52.79 53.98 55.44 55.18
49.46 48.50 47.93 46.94 46.36 45.24 45.23 45.47 45.41 43.47 43.50 41.99 41.54 37.60 37.15 37.49 40.05 39.34 39.41 39.44 38.54 38.27 39.19 38.95 39.36 39.17 39.75 43.13 45.04 51.28 52.29 53.48 54.85
49.00 48.65 47.33 46.52 46.27 45.11 45.05 45.89 44.29 43.85 42.53 42.26 43.35 40.11 39.76 38.62 38.22 39.73 38.89 38.46 39.56 38.11 38.78 38.49 39.11 38.76 39.36 43.64 47.38 50.79 51.07 51.81 53.04
49.21 48.44 47.07 45.51 45.39 45.12 45.64 44.46 44.08 43.77 43.02 41.98 40.96 39.52 38.54 37.65 38.35 37.69 38.38 38.41 37.83 37.87 37.90 37.64 37.54 38.01 38.18 38.55 42.90 49.51 49.70 50.22 50.72

GFSFLT1_sfc_wetblb_111.txt.gz
Wetbulb
73.00 72.94 72.52 71.41 71.86 72.29 71.31 70.37 69.67 69.15 68.76 68.69 68.68 68.76 68.68 69.20 68.70 71.46 70.74 71.00 72.94 73.21 73.26 73.06 73.23 73.38 73.45 73.18 73.14 73.31 73.30 72.40 73.03
72.95 72.74 72.26 71.46 72.32 72.00 70.87 69.97 69.13 68.25 67.93 67.84 67.62 67.43 67.33 67.84 68.73 70.77 71.03 71.09 71.45 72.24 72.66 72.78 72.83 72.79 72.86 72.67 72.85 72.69 72.77 73.04 72.56
72.49 72.02 71.62 70.77 71.00 71.55 70.21 68.38 67.38 66.82 67.05 67.17 67.10 66.74 66.24 66.63 67.48 68.65 69.40 71.01 71.08 72.03 72.38 72.40 72.41 72.47 72.50 72.41 72.26 71.62 71.51 71.64 71.80
71.18 70.62 70.70 69.86 69.49 70.65 68.83 67.21 66.04 65.50 66.04 66.61 66.64 66.32 65.70 65.96 66.64 66.74 67.63 69.44 70.03 70.72 71.08 71.20 71.46 71.61 72.18 72.29 72.12 72.20 71.32 71.18 71.76
70.26 70.13 69.87 68.89 68.60 69.86 66.92 65.68 65.04 64.78 65.58 65.94 65.78 65.18 65.41 65.76 66.08 66.49 67.17 68.50 69.41 69.62 69.61 69.83 70.05 70.70 71.49 71.54 71.63 71.46 71.71 71.39 70.60
68.06 68.13 68.81 66.96 67.60 67.93 65.48 65.08 65.12 65.44 65.85 65.87 65.20 64.18 64.80 65.35 66.00 65.95 67.88 67.82 67.91 67.66 67.45 67.83 68.49 69.17 69.73 70.32 70.17 69.95 70.59 70.79 70.89
65.59 66.10 67.42 66.13 66.99 66.03 64.79 64.93 64.08 62.60 62.99 63.86 63.56 63.93 65.33 66.10 65.18 65.27 67.65 66.69 66.69 66.44 66.10 65.99 66.27 66.77 67.36 68.13 68.72 68.90 69.02 69.26 69.96
63.58 62.34 62.00 63.17 63.45 62.32 58.96 56.76 57.62 59.81 61.56 62.27 62.72 63.78 64.49 64.74 64.28 65.73 67.15 65.64 65.67 65.21 64.73 64.45 64.41 64.82 65.03 65.29 65.58 66.33 67.59 68.37 68.43
59.54 58.74 58.66 58.61 58.03 54.48 54.03 54.54 55.47 56.71 58.88 60.60 61.41 62.22 62.36 62.84 63.23 64.36 65.33 64.09 63.84 64.23 64.04 63.73 63.63 63.65 63.71 63.66 63.66 63.73 64.14 64.85 65.98
56.29 55.23 55.48 53.89 53.67 53.62 53.47 53.78 53.92 54.29 54.81 56.09 57.80 59.11 60.06 60.46 60.79 60.78 63.55 63.07 62.85 63.18 63.66 63.71 63.29 62.99 62.44 62.24 62.27 62.36 62.62 62.90 63.35
54.29 52.97 52.76 52.35 53.17 53.11 53.28 53.06 53.09 53.05 53.87 53.79 54.65 55.56 57.03 57.74 58.22 59.22 60.33 62.79 61.81 61.89 62.37 62.36 62.27 62.11 61.63 61.19 60.98 61.06 61.47 61.80 61.61
53.99 52.76 52.36 52.27 52.42 52.04 51.94 51.70 52.24 52.20 52.48 52.90 53.34 53.93 54.72 55.35 55.77 56.26 57.36 58.62 60.45 60.38 60.20 60.45 60.67 60.81 60.64 60.32 59.78 59.69 59.60 59.75 60.19
53.91 52.90 52.31 52.05 52.44 52.79 52.44 52.28 51.99 51.95 52.29 51.81 52.08 53.06 53.50 53.40 53.48 54.18 54.45 54.81 55.86 57.93 58.44 58.80 58.78 59.07 59.15 59.09 58.67 58.37 58.38 58.21 58.60
53.61 53.23 52.55 52.37 52.94 53.06 52.73 52.41 53.26 52.07 51.83 51.84 51.84 51.87 52.26 52.74 52.88 52.53 53.33 53.59 53.61 53.75 54.27 55.09 57.08 58.45 58.41 58.38 58.36 57.08 57.15 57.00 57.12
53.28 52.85 51.88 52.77 53.26 52.83 53.07 52.81 52.65 52.87 52.71 51.41 51.39 51.85 52.42 52.76 52.70 52.07 51.49 52.74 52.87 53.40 52.93 53.25 52.80 55.50 55.96 55.84 56.70 56.63 56.28 56.09 55.92
52.41 52.56 52.16 52.79 53.14 53.30 53.66 52.42 52.42 51.82 52.59 51.72 51.20 50.97 50.40 50.96 50.73 51.62 51.72 51.04 52.04 51.94 51.58 51.49 51.31 50.98 52.76 54.44 54.86 55.09 55.48 56.37 56.18
50.10 52.33 51.98 52.09 51.78 51.21 51.85 52.21 51.24 51.67 50.48 50.91 49.99 48.12 49.71 50.30 49.29 49.34 50.25 50.18 50.96 49.27 48.55 48.91 49.18 49.77 50.74 51.41 51.50 52.54 53.69 54.52 55.18
51.24 51.39 50.61 50.34 51.65 50.90 51.93 51.93 51.97 49.93 48.87 49.16 50.17 46.78 46.84 48.21 49.78 48.55 49.54 49.75 49.52 48.90 48.61 48.18 48.43 48.76 49.34 49.03 49.37 50.94 51.88 53.01 54.14
50.76 50.67 50.88 50.62 50.81 49.94 50.72 51.92 52.52 53.00 51.31 50.50 49.87 50.26 50.16 48.65 47.05 48.62 48.70 48.84 47.53 48.36 49.02 48.67 47.95 48.01 48.25 47.36 47.73 50.57 50.72 51.19 52.05
53.22 51.41 50.29 50.33 50.41 50.83 50.86 50.70 51.08 52.32 52.11 51.46 50.09 49.83 49.19 48.91 48.98 47.10 47.19 47.27 47.04 47.42 47.80 47.66 48.11 47.98 48.02 47.70 47.20 48.87 49.45 50.07 50.77

GFSFLT1_sfc_wetblb_114.txt.gz
Wetbulb
73.19 72.82 71.78 72.81 72.29 71.36 70.54 69.74 69.27 69.11 69.08 69.34 70.07 70.36 71.25 72.85 71.38 70.95 72.03 72.39 73.31 73.65 73.27 73.19 73.21 73.11 73.09 73.29 73.50 73.58 72.97 73.19 73.37
73.00 72.42 71.58 72.54 71.91 71.15 70.30 69.34 68.62 68.33 68.12 68.19 68.67 69.45 71.00 71.27 70.11 69.93 70.98 71.86 72.87 73.13 72.92 72.87 72.88 72.82 72.71 73.05 73.00 72.11 72.61 73.04 72.91
72.54 72.05 72.08 72.16 71.62 70.47 68.85 68.12 67.80 67.60 67.47 67.43 67.85 67.78 70.28 69.99 68.85 69.44 70.09 71.63 71.79 72.39 72.30 72.53 72.48 72.34 72.48 72.50 71.67 71.75 71.97 71.90 72.35
72.10 71.58 70.75 71.71 70.74 69.39 67.82 66.86 66.76 66.95 67.04 67.12 67.31 67.30 69.18 67.87 67.97 67.95 69.43 70.74 70.83 71.26 70.97 71.52 71.77 71.98 72.25 72.24 72.25 71.41 71.33 71.45 71.07
71.10 70.90 70.03 70.50 70.13 68.08 66.53 65.72 65.91 66.29 66.49 66.58 66.41 67.26 68.48 66.96 66.99 67.47 67.90 68.52 69.14 69.76 69.99 70.16 70.56 71.03 71.11 71.12 71.50 71.76 71.67 70.90 70.40
70.46 70.58 70.11 69.74 68.83 66.67 65.81 65.60 65.88 65.98 66.01 65.87 65.26 68.13 66.21 65.98 65.88 66.70 67.92 67.34 67.91 67.88 67.77 68.23 68.85 69.53 69.85 70.18 70.28 70.46 70.55 70.82 70.69
68.17 68.68 68.99 68.98 67.22 65.69 65.73 65.82 65.14 66.11 63.58 64.37 65.50 66.23 65.57 65.37 65.65 65.93 67.30 66.19 66.52 66.42 66.07 66.13 66.26 66.65 67.27 67.61 68.54 69.27 69.44 69.80 69.81
65.91 65.83 66.06 67.34 66.15 63.36 62.75 62.96 62.55 63.74 63.76 63.99 65.42 65.53 64.48 64.94 65.24 65.86 66.39 65.19 65.36 65.34 65.07 64.93 64.82 64.86 64.87 64.98 65.32 66.00 66.90 67.77 68.19
64.74 64.05 64.44 64.98 62.89 57.75 57.81 59.22 61.79 62.85 62.99 63.65 63.66 63.34 63.45 63.80 63.40 64.19 65.43 64.75 64.78 64.93 64.66 64.25 63.75 63.61 63.81 63.86 64.02 64.19 64.27 64.66 65.40
63.78 62.95 62.04 61.26 57.80 56.62 57.06 57.73 58.22 58.83 60.09 61.59 61.44 60.64 61.18 61.63 61.25 61.84 64.64 64.28 64.01 64.21 64.26 63.81 63.38 62.88 62.58 62.62 62.82 62.86 62.59 62.77 63.00
62.16 61.04 59.36 57.64 57.00 57.19 57.10 56.89 56.88 56.78 57.13 57.24 58.37 58.64 59.05 59.62 60.39 60.80 61.73 63.65 62.86 62.86 62.92 62.78 62.55 62.36 61.80 61.54 61.29 61.07 61.22 61.51 61.76
60.13 58.76 56.81 56.44 56.73 56.60 56.75 56.41 56.65 56.69 56.75 56.49 56.69 56.98 57.07 57.54 58.29 59.38 59.59 59.75 61.59 61.14 60.80 61.07 61.16 61.09 60.91 60.38 60.18 59.94 59.84 60.17 60.33
57.80 56.76 56.21 56.48 56.37 56.44 56.14 56.16 55.93 56.00 56.16 55.90 56.17 56.30 56.18 56.27 56.56 57.07 57.61 58.02 58.35 58.67 59.07 59.45 59.69 59.59 59.81 59.73 58.87 58.87 58.79 58.70 58.86
57.11 56.51 56.47 56.49 56.44 56.39 56.36 56.34 56.22 55.31 55.41 55.30 55.95 56.57 56.54 56.11 55.51 55.97 56.49 56.21 57.16 56.68 55.25 56.59 57.81 58.93 58.82 58.60 58.51 57.69 57.60 57.24 57.53
56.57 56.80 56.22 56.38 56.30 56.36 56.48 56.17 56.61 56.05 55.59 54.00 54.85 55.93 56.42 56.68 56.79 55.60 55.52 55.98 56.19 57.17 56.73 56.88 55.83 56.26 56.31 57.13 57.70 57.38 57.35 57.35 57.08
53.63 56.27 55.49 56.67 56.54 56.55 56.81 56.49 55.80 55.45 56.18 54.86 54.41 55.04 56.11 55.58 55.37 55.68 55.59 55.06 55.81 56.06 56.12 55.87 55.87 54.66 54.40 54.90 55.18 55.73 56.11 56.31 56.20
54.71 54.61 54.94 56.41 56.72 56.91 56.48 56.49 55.46 55.86 55.79 54.05 54.22 51.00 52.12 53.35 53.86 54.56 53.93 53.93 54.35 53.66 53.41 53.92 54.00 54.63 54.24 52.14 51.25 52.12 53.57 54.85 55.47
50.90 51.93 53.87 55.91 56.36 55.76 56.19 56.53 56.43 54.00 53.95 54.23 52.95 49.97 48.41 52.20 53.39 53.06 53.59 53.45 53.58 53.63 53.41 53.19 53.20 53.24 53.35 51.60 51.44 51.06 51.83 52.61 53.40
52.79 52.07 51.50 52.51 53.28 53.46 54.54 54.76 55.70 55.12 52.82 53.99 53.83 54.17 53.77 50.22 49.85 52.67 52.72 52.97 52.36 52.57 52.58 52.11 52.16 52.07 51.73 49.54 47.76 49.00 50.16 50.80 51.77
54.17 53.22 52.43 50.50 51.64 52.82 53.56 53.82 54.68 55.21 54.13 53.52 53.39 52.98 53.33 53.46 51.31 49.38 50.80 51.09 50.84 52.17 52.14 51.82 51.42 51.59 51.01 50.48 49.01 47.78 49.20 49.58 50.44

GFSFLT1_sfc_wetblb_117.txt.gz
Wetbulb
73.05 72.79 73.30 72.38 71.41 70.47 69.99 69.49 69.45 69.45 70.16 70.75 70.90 72.20 73.18 71.74 71.27 71.54 72.56 72.47 73.45 73.65 73.38 73.43 73.76 73.81 73.85 73.86 74.04 74.26 73.41 73.51 73.97
72.82 72.02 72.96 72.10 71.16 70.46 69.58 68.86 68.63 68.58 69.03 69.64 70.04 71.34 72.13 69.32 69.11 70.48 71.36 71.64 72.91 73.23 73.11 72.98 72.94 72.80 73.16 73.55 73.23 72.56 72.94 72.94 73.16
72.50 72.35 72.27 71.73 70.67 69.44 68.83 68.40 68.11 67.71 68.26 68.44 68.53 69.38 71.60 68.94 68.79 69.50 70.76 71.77 72.31 72.76 72.76 72.54 72.46 72.43 72.67 72.73 72.30 71.46 71.64 71.96 72.36
72.31 72.15 71.79 71.30 69.64 68.47 67.81 67.69 67.52 67.47 67.52 67.64 67.95 69.81 70.41 67.02 68.61 67.93 68.64 71.13 71.07 71.81 71.97 71.86 71.82 71.90 72.20 72.25 72.05 71.12 70.93 70.83 70.99
71.95 71.89 71.34 70.50 68.82 67.48 66.64 66.78 67.01 66.95 66.72 66.75 67.03 68.92 69.52 66.54 66.92 66.51 67.13 69.01 69.30 70.26 70.41 70.65 70.78 71.07 71.27 71.44 71.77 71.70 71.59 70.85 70.80
70.49 70.68 70.89 69.14 67.64 66.63 66.13 66.32 66.22 66.44 65.59 64.58 65.38 67.85 65.49 65.56 65.46 65.46 68.05 67.63 68.02 68.13 68.12 68.47 68.83 69.54 70.22 70.50 70.51 70.43 70.46 70.35 70.19
69.43 69.15 70.51 67.95 66.64 66.07 66.11 65.64 65.98 65.93 63.57 64.94 65.75 64.71 65.27 64.78 64.41 64.73 67.17 66.30 66.78 66.63 66.30 66.11 66.21 66.55 67.07 67.72 68.25 68.80 69.02 69.34 69.68
67.43 66.44 67.84 66.13 66.06 63.31 63.16 64.00 63.78 62.98 63.38 64.91 64.40 64.19 64.70 64.14 63.79 65.08 66.48 65.48 65.99 65.94 65.32 65.05 65.09 65.29 65.49 65.46 65.55 65.70 66.18 67.09 67.74
65.48 64.99 66.15 65.25 62.05 59.21 59.67 61.49 62.97 62.82 63.23 63.37 62.82 63.23 63.52 62.61 62.52 64.25 66.24 65.48 65.32 65.27 64.93 64.51 64.31 64.19 64.33 64.21 64.02 64.12 64.17 64.40 64.82
64.30 63.84 64.37 63.52 58.92 57.22 58.33 60.23 61.00 61.47 61.88 61.82 60.77 61.45 61.35 61.15 61.65 62.50 65.58 65.50 64.56 64.53 64.31 64.02 63.72 63.39 63.14 62.90 62.93 62.86 62.86 63.01 63.20
63.39 62.76 61.02 59.83 57.17 57.45 57.77 57.72 57.86 58.17 58.89 58.89 59.17 59.19 59.88 60.11 60.58 60.84 61.88 64.52 64.11 63.35 63.32 63.22 62.96 62.58 62.31 61.89 61.55 61.58 61.56 61.84 61.89
62.42 61.23 58.39 57.00 57.01 56.82 57.23 57.08 57.32 57.13 57.02 56.76 57.27 57.67 58.01 59.05 59.49 59.72 59.79 59.95 62.23 62.13 61.51 61.63 61.70 61.77 61.35 60.98 60.71 60.37 60.31 60.40 60.27
61.06 59.09 56.83 56.93 57.09 57.50 56.85 56.68 56.65 56.62 56.47 55.96 56.25 56.30 56.82 56.74 57.47 58.45 58.60 59.33 58.05 59.06 60.15 60.51 60.52 60.54 60.32 60.00 59.62 59.37 59.11 59.20 59.24
58.49 57.58 57.27 56.96 57.32 56.71 57.13 56.61 56.46 55.68 55.98 55.85 56.27 56.37 56.20 56.19 56.11 56.23 57.35 57.16 58.90 56.80 56.64 57.83 58.63 58.53 59.12 59.46 59.05 58.56 58.54 58.45 58.30
57.76 57.81 57.43 56.62 57.50 57.42 57.64 56.19 56.64 56.12 55.72 53.86 54.60 55.78 56.43 56.60 56.41 55.91 56.05 56.52 57.25 57.66 57.78 57.33 55.73 56.87 57.62 57.83 57.93 57.79 57.77 57.34 57.12
57.78 57.82 56.75 57.65 57.43 57.17 57.70 56.97 56.03 56.09 56.11 54.48 54.66 54.89 55.43 55.41 55.93 56.25 55.51 56.28 56.06 56.31 56.84 56.91 56.58 54.82 55.88 54.93 55.10 55.73 56.36 56.71 56.58
56.45 56.56 56.36 54.83 57.76 57.55 57.42 58.31 56.46 56.64 56.69 53.78 54.49 51.19 52.42 53.99 54.77 55.24 55.19 54.63 55.57 54.71 54.48 54.20 54.54 56.21 54.88 52.80 51.94 52.88 54.07 54.73 54.73
55.44 55.80 55.38 56.30 58.41 57.99 58.51 58.17 58.63 55.68 56.78 55.29 54.09 50.56 49.06 52.47 54.01 53.33 54.01 54.11 54.72 54.67 54.09 53.38 53.28 53.24 54.09 52.70 52.71 50.74 51.01 51.69 52.49
53.05 52.60 51.84 52.11 52.45 53.94 56.36 56.03 56.94 56.14 53.90 54.90 54.00 54.05 53.86 51.04 50.43 53.37 53.22 53.87 53.31 54.13 54.56 53.22 52.59 52.27 53.88 51.31 49.67 48.52 49.16 50.09 50.89
52.76 51.95 51.20 50.94 51.05 50.99 51.65 52.67 53.55 55.05 54.56 55.07 54.84 53.97 53.73 52.67 50.35 49.54 50.92 53.27 53.43 53.32 53.56 52.57 52.86 52.86 53.22 52.90 51.34 48.11 48.09 48.65 49.61